Location: Andrest
(43.3200°N, 0.0641°E)
Time: 14:30:04
(UTC+00:00)

SL-16 R/B - Pass Details

Date: 01 December 2020
Orbit: 841 x 849 km, 71.0° (Epoch: 22 January)

Event Time Altitude Azimuth Distance (km) Brightness Sun altitude
Rises 18:34:40 0° 250° (WSW) 3,390 6.7 -22.9°
Reaches altitude 10° 18:37:51 10° 268° (W) 2,459 5.7 -23.5°
Maximum altitude 18:41:46 19° 313° (NW) 1,906 4.4 -24.2°
Drops below altitude 10° 18:45:43 10° 357° (N) 2,467 4.6 -24.9°
Enters shadow 18:46:54 - 5° (N) 2,786 4.8 -25.2°
